This is the latest recevied weather packets stored in our database for station/object KA7KDX-4. If no packets are shown the sender has not sent any weather packets the latest 1 day(s).
| Time | Temp. | Humidity | Pressure | Rain* | Wind** | Luminosity | Snow |
|---|---|---|---|---|---|---|---|
| 1778030105 | 17.22° C | 40% | 1003.4 hPa | 0 mm | 3.13 m/s, 14° | - | - |
| 1778029805 | 17.22° C | 40% | 1003.4 hPa | 0 mm | 3.58 m/s, 7° | - | - |
| 1778029505 | 17.22° C | 40% | 1003.3 hPa | 0 mm | 4.02 m/s, 6° | - | - |
| 1778029205 | 17.22° C | 40% | 1003.2 hPa | 0 mm | 3.58 m/s, 6° | - | - |
| 1778028905 | 17.22° C | 40% | 1003.1 hPa | 0 mm | 3.58 m/s, 6° | - | - |
| 1778028605 | 17.78° C | 39% | 1003.1 hPa | 0 mm | 4.02 m/s, 5° | - | - |
| 1778028306 | 17.78° C | 40% | 1003.1 hPa | 0 mm | 3.58 m/s, 6° | - | - |
| 1778028006 | 17.78° C | 40% | 1003 hPa | 0 mm | 3.58 m/s, 6° | - | - |
| 1778027706 | 17.78° C | 39% | 1003 hPa | 0 mm | 3.58 m/s, 6° | - | - |
| 1778027406 | 17.78° C | 38% | 1002.9 hPa | 0 mm | 3.58 m/s, 7° | - | - |
| 1778027106 | 17.78° C | 39% | 1002.8 hPa | 0 mm | 3.58 m/s, 9° | - | - |
| 1778026806 | 17.78° C | 38% | 1002.9 hPa | 0 mm | 2.68 m/s, 341° | - | - |
| 1778026505 | 17.78° C | 38% | 1002.8 hPa | 0 mm | 3.58 m/s, 354° | - | - |
| 1778026205 | 17.78° C | 38% | 1002.8 hPa | 0 mm | 3.13 m/s, 358° | - | - |
| 1778025905 | 17.78° C | 38% | 1002.9 hPa | 0 mm | 3.13 m/s, 19° | - | - |
| 1778025605 | 17.78° C | 38% | 1002.8 hPa | 0 mm | 3.13 m/s, 39° | - | - |
| 1778025306 | 17.78° C | 37% | 1002.8 hPa | 0 mm | 2.68 m/s, 13° | - | - |
| 1778025006 | 18.33° C | 37% | 1002.7 hPa | 0 mm | 2.24 m/s, 13° | - | - |
| 1778024706 | 17.78° C | 37% | 1002.7 hPa | 0 mm | 2.24 m/s, 9° | - | - |
| 1778024406 | 18.33° C | 37% | 1002.7 hPa | 0 mm | 4.47 m/s, 35° | - | - |
| 1778024105 | 18.33° C | 36% | 1002.5 hPa | 0 mm | 5.81 m/s, 52° | - | - |
| 1778023805 | 18.89° C | 36% | 1002.4 hPa | 0 mm | 5.36 m/s, 52° | - | - |
| 1778023505 | 18.33° C | 35% | 1002.4 hPa | 0 mm | 4.92 m/s, 49° | - | - |
| 1778023205 | 18.33° C | 35% | 1002.6 hPa | 0 mm | 4.92 m/s, 47° | - | - |
| 1778022905 | 17.78° C | 36% | 1002.9 hPa | 0 mm | 5.81 m/s, 50° | - | - |
* Rain latest hour (hover to see other rain measurements)
** Current wind speed in m/s (hover to see current wind gust speed)